Location: Unspecified
(0.0000°N, 0.0000°E)
Time: 19:00:39
(UTC+00:00)

Vanguard 2 Rocket - Pass Details

Date: 22 January 2020
Orbit: 554 x 3327 km, 32.9° (Epoch: 20 February)

Event Time Altitude Azimuth Distance (km) Brightness Sun altitude
Rises 15:02:56 0° 289° (WNW) 6,461 11.7 43.6°
Reaches altitude 10° 15:07:02 10° 284° (WNW) 5,720 11.7 42.7°
Maximum altitude 15:25:03 50° 214° (SSW) 3,901 11.6 38.7°
Drops below altitude 10° 15:43:24 10° 142° (SE) 5,758 10.9 34.5°
Sets 15:47:39 0° 136° (SE) 6,499 11.1 33.6°
